Overview Statistics Trail Chart Weather Telemetry Raw packets
 

This is the latest recevied weather packets stored in our database for station/object W7TRD. If no packets are shown the sender has not sent any weather packets the latest 10 day(s).

<< 82 83 84 85 86 87 88 >>
Time Temp. Humidity Pressure Rain* Wind** Luminosity Snow
1788019710 17.22° C 80% 1020.3 hPa 0 mm - 103 W/m² -
1788019410 17.22° C 81% 1020.3 hPa 0 mm - 99 W/m² -
1788019107 16.67° C 82% 1020.3 hPa 0 mm - 95 W/m² -
1788018814 16.11° C 84% 1020.3 hPa 0 mm - 88 W/m² -
1788018497 15.56° C 85% 1020.3 hPa 0 mm - 58 W/m² -
1788018196 15° C 89% 1020.1 hPa 0 mm - 58 W/m² -
1788017893 13.89° C 91% 1020.3 hPa 0 mm - 65 W/m² -
1788017589 13.89° C 91% 1019.9 hPa 0 mm - 67 W/m² -
1788017285 13.89° C 92% 1020.1 hPa 0 mm - 95 W/m² -
1788016982 13.89° C 92% 1020.1 hPa 0 mm - 92 W/m² -
1788016680 13.89° C 92% 1019.9 hPa 0 mm - 67 W/m² -
1788016378 13.89° C 92% 1019.8 hPa 0 mm - 54 W/m² -
1788016078 13.89° C 93% 1019.8 hPa 0 mm - 48 W/m² -
1788015777 13.89° C 92% 1019.7 hPa 0 mm - 69 W/m² -
1788015472 13.89° C 91% 1019.7 hPa 0 mm - 41 W/m² -
1788015168 13.89° C 92% 1019.7 hPa 0 mm - 43 W/m² -
1788014866 13.89° C 93% 1019.7 hPa 0 mm - 43 W/m² -
1788014566 13.33° C 93% 1019.5 hPa 0 mm - 37 W/m² -
1788014261 13.33° C 93% 1019.5 hPa 0 mm - 35 W/m² -
1788013956 13.89° C 94% 1019.4 hPa 0 mm - 26 W/m² -
1788013651 13.33° C 94% 1019.2 hPa 0 mm - 31 W/m² -
1788013346 13.33° C 94% 1019.1 hPa 0 mm - 25 W/m² -
1788013046 13.33° C 94% 1019.2 hPa 0 mm - 21 W/m² -
1788012745 13.33° C 95% 1019.3 hPa 0 mm - 29 W/m² -
1788012447 13.33° C 95% 1019.2 hPa 0 mm - 24 W/m² -

* Rain latest hour (hover to see other rain measurements)
** Current wind speed in m/s (hover to see current wind gust speed)